SWA3257 KMDW-KDAL

Flight info

Callsign SWA3257
Flight time 1h 49m
Altitude 38000
Route ACITO ADELL ARLYN STL KK45I FSM CAMAL HIBIL3
Aircraft B38M/M-SDE1FGHILORVWXY/HB1

Departure

Time 2026-05-03 23:16
Airport Chicago Midway International Airport (KMDW)

Arrival

Time 2026-05-04 01:05
Airport Dallas Love Field (KDAL)
Time Latitude Longitude Altitude Speed Heading
2026-05-03 23:04 41.78621 -87.74536 631 ft 0 kts 341°
2026-05-03 23:09 41.78612 -87.74532 636 ft 2 kts 341°
2026-05-03 23:09 41.78592 -87.74519 636 ft 2 kts 311°
2026-05-03 23:10 41.78578 -87.74497 631 ft 2 kts 311°
2026-05-03 23:10 41.78577 -87.74495 631 ft 0 kts 311°
2026-05-03 23:12 41.78579 -87.74500 631 ft 2 kts 295°
2026-05-03 23:13 41.78577 -87.74512 631 ft 1 kts 229°
2026-05-03 23:13 41.78544 -87.74550 633 ft 11 kts 217°
2026-05-03 23:13 41.78518 -87.74651 639 ft 15 kts 297°
2026-05-03 23:13 41.78598 -87.74763 639 ft 18 kts 327°
2026-05-03 23:14 41.78727 -87.74765 631 ft 20 kts 36°
2026-05-03 23:14 41.78822 -87.74628 637 ft 21 kts 43°
2026-05-03 23:14 41.78894 -87.74537 632 ft 22 kts 44°
2026-05-03 23:14 41.79012 -87.74385 636 ft 24 kts 44°
2026-05-03 23:15 41.79138 -87.74262 634 ft 18 kts 350°
2026-05-03 23:15 41.79153 -87.74366 632 ft 15 kts 225°
2026-05-03 23:15 41.78935 -87.74640 634 ft 84 kts 224°
2026-05-03 23:15 41.78315 -87.75421 664 ft 153 kts 220°
2026-05-03 23:16 41.77536 -87.76433 1490 ft 155 kts 222°
2026-05-03 23:16 41.76735 -87.77394 2501 ft 155 kts 222°
2026-05-03 23:16 41.75854 -87.78378 3162 ft 174 kts 223°
2026-05-03 23:16 41.74881 -87.79454 3809 ft 188 kts 223°
2026-05-03 23:17 41.73843 -87.80605 4533 ft 204 kts 223°
2026-05-03 23:17 41.72689 -87.81888 5322 ft 220 kts 223°
2026-05-03 23:17 41.71487 -87.83226 6267 ft 236 kts 223°
2026-05-03 23:17 41.70165 -87.84702 7099 ft 252 kts 223°
2026-05-03 23:18 41.68811 -87.86216 8064 ft 260 kts 224°
2026-05-03 23:18 41.67398 -87.87798 9043 ft 270 kts 224°
2026-05-03 23:18 41.65933 -87.89434 10000 ft 278 kts 225°
2026-05-03 23:18 41.64411 -87.91130 10730 ft 294 kts 224°
2026-05-03 23:19 41.62784 -87.92935 11298 ft 313 kts 224°
2026-05-03 23:19 41.61066 -87.94844 11984 ft 328 kts 224°
2026-05-03 23:19 41.59285 -87.96825 12710 ft 338 kts 224°
2026-05-03 23:19 41.58304 -87.97914 13206 ft 341 kts 224°
2026-05-03 23:20 41.57835 -87.98436 13446 ft 342 kts 224°
2026-05-03 23:20 41.56038 -88.00431 14241 ft 347 kts 224°
2026-05-03 23:20 41.54167 -88.02508 15050 ft 351 kts 225°
2026-05-03 23:20 41.52282 -88.04598 15889 ft 354 kts 225°
2026-05-03 23:21 41.50380 -88.06707 16701 ft 357 kts 225°
2026-05-03 23:21 41.48483 -88.08807 17472 ft 361 kts 225°
2026-05-03 23:21 41.46548 -88.10949 18229 ft 364 kts 225°
2026-05-03 23:21 41.44580 -88.13125 18894 ft 367 kts 225°
2026-05-03 23:22 41.40587 -88.17477 20231 ft 376 kts 220°
2026-05-03 23:22 41.38197 -88.18997 20934 ft 388 kts 205°
2026-05-03 23:22 41.35624 -88.20182 21549 ft 392 kts 206°
2026-05-03 23:23 41.33027 -88.21377 22152 ft 396 kts 206°
2026-05-03 23:23 41.30407 -88.22565 22793 ft 399 kts 206°
2026-05-03 23:23 41.27796 -88.23738 23410 ft 402 kts 206°
2026-05-03 23:23 41.25134 -88.24932 23909 ft 405 kts 206°
2026-05-03 23:24 41.22458 -88.26147 24413 ft 408 kts 206°
2026-05-03 23:24 41.19757 -88.27370 24896 ft 411 kts 206°
2026-05-03 23:24 41.17040 -88.28599 25376 ft 414 kts 206°
2026-05-03 23:24 41.14302 -88.29836 25858 ft 417 kts 206°
2026-05-03 23:25 41.11544 -88.31081 26280 ft 420 kts 207°
2026-05-03 23:25 41.08822 -88.32480 26766 ft 414 kts 214°
2026-05-03 23:25 41.06317 -88.34323 27156 ft 408 kts 224°
2026-05-03 23:25 41.04017 -88.36465 27599 ft 409 kts 224°
2026-05-03 23:26 41.01546 -88.38431 28012 ft 425 kts 212°
2026-05-03 23:26 40.98886 -88.40102 28485 ft 418 kts 221°
2026-05-03 23:26 40.96697 -88.42515 28773 ft 406 kts 235°
2026-05-03 23:26 40.94673 -88.45179 29150 ft 415 kts 230°
2026-05-03 23:27 40.92462 -88.47657 29570 ft 419 kts 228°
2026-05-03 23:27 40.90187 -88.50078 29996 ft 421 kts 227°
2026-05-03 23:27 40.87872 -88.52474 30363 ft 423 kts 227°
2026-05-03 23:27 40.85541 -88.54854 30734 ft 425 kts 227°
2026-05-03 23:28 40.83203 -88.57220 31039 ft 428 kts 227°
2026-05-03 23:28 40.80827 -88.59611 31356 ft 431 kts 227°
2026-05-03 23:28 40.78433 -88.62016 31671 ft 433 kts 227°
2026-05-03 23:28 40.76025 -88.64432 31977 ft 436 kts 227°
2026-05-03 23:29 40.73607 -88.66855 32299 ft 438 kts 227°
2026-05-03 23:29 40.71176 -88.69289 32702 ft 438 kts 227°
2026-05-03 23:29 40.68742 -88.71723 33142 ft 438 kts 227°
2026-05-03 23:29 40.66314 -88.74150 33559 ft 438 kts 227°
2026-05-03 23:30 40.63891 -88.76570 33956 ft 437 kts 227°
2026-05-03 23:30 40.61466 -88.78987 34275 ft 438 kts 226°
2026-05-03 23:30 40.59036 -88.81409 34587 ft 439 kts 226°
2026-05-03 23:30 40.56596 -88.83837 34893 ft 439 kts 226°
2026-05-03 23:31 40.54153 -88.86268 35179 ft 440 kts 226°
2026-05-03 23:31 40.51736 -88.88670 35498 ft 440 kts 226°
2026-05-03 23:31 40.49283 -88.91105 35806 ft 440 kts 226°
2026-05-03 23:31 40.46831 -88.93537 36070 ft 441 kts 226°
2026-05-03 23:32 40.44378 -88.95969 36369 ft 441 kts 226°
2026-05-03 23:32 40.41924 -88.98398 36652 ft 442 kts 225°
2026-05-03 23:32 40.39464 -89.00831 36917 ft 443 kts 225°
2026-05-03 23:32 40.37033 -89.03234 37183 ft 443 kts 225°
2026-05-03 23:33 40.34566 -89.05669 37448 ft 444 kts 224°
2026-05-03 23:33 40.32095 -89.08106 37709 ft 444 kts 224°
2026-05-03 23:33 40.29621 -89.10545 37876 ft 446 kts 224°
2026-05-03 23:33 40.27132 -89.12995 37876 ft 446 kts 224°
2026-05-03 23:34 40.22188 -89.17857 37866 ft 444 kts 224°
2026-05-03 23:34 40.17249 -89.22704 37869 ft 443 kts 224°
2026-05-03 23:35 40.12344 -89.27508 37854 ft 442 kts 224°
2026-05-03 23:35 40.07407 -89.32334 37871 ft 443 kts 224°
2026-05-03 23:36 40.02460 -89.37162 37840 ft 443 kts 224°
2026-05-03 23:36 39.97553 -89.41942 37873 ft 443 kts 224°
2026-05-03 23:37 39.92615 -89.46742 37872 ft 442 kts 224°
2026-05-03 23:37 39.87665 -89.51547 37875 ft 443 kts 224°
2026-05-03 23:38 39.82725 -89.56332 37859 ft 443 kts 224°
2026-05-03 23:38 39.77777 -89.61115 37845 ft 442 kts 224°
2026-05-03 23:39 39.72847 -89.65874 37859 ft 441 kts 224°
2026-05-03 23:39 39.67948 -89.70594 37867 ft 441 kts 224°
2026-05-03 23:40 39.63005 -89.75347 37862 ft 441 kts 224°
2026-05-03 23:40 39.58065 -89.80089 37863 ft 441 kts 224°
2026-05-03 23:41 39.53134 -89.84813 37869 ft 439 kts 224°
2026-05-03 23:41 39.48253 -89.89482 37867 ft 439 kts 224°
2026-05-03 23:42 39.43334 -89.94178 37863 ft 439 kts 224°
2026-05-03 23:42 39.38408 -89.98873 37868 ft 439 kts 224°
2026-05-03 23:43 39.33521 -90.03522 37832 ft 439 kts 224°
2026-05-03 23:43 39.28616 -90.08179 37858 ft 436 kts 224°
2026-05-03 23:44 39.23720 -90.12820 37864 ft 436 kts 224°
2026-05-03 23:44 39.18818 -90.17458 37863 ft 436 kts 224°
2026-05-03 23:45 39.13911 -90.22094 37861 ft 436 kts 224°
2026-05-03 23:45 39.09052 -90.26676 37860 ft 435 kts 225°
2026-05-03 23:46 39.04164 -90.31275 37859 ft 435 kts 225°
2026-05-03 23:46 38.99270 -90.35874 37863 ft 435 kts 225°
2026-05-03 23:47 38.94382 -90.40460 37861 ft 435 kts 225°
2026-05-03 23:47 38.89481 -90.45048 37869 ft 435 kts 225°
2026-05-03 23:48 38.84805 -90.49821 37871 ft 426 kts 233°
2026-05-03 23:48 38.80394 -90.54981 37883 ft 429 kts 231°
2026-05-03 23:49 38.75937 -90.60074 37879 ft 429 kts 231°
2026-05-03 23:49 38.71471 -90.65152 37877 ft 429 kts 230°
2026-05-03 23:50 38.67758 -90.69367 37874 ft 429 kts 231°
2026-05-03 23:50 38.62530 -90.75293 37862 ft 429 kts 230°
2026-05-03 23:51 38.58054 -90.80356 37871 ft 431 kts 230°
2026-05-03 23:51 38.53579 -90.85409 37867 ft 431 kts 230°
2026-05-03 23:52 38.49078 -90.90482 37866 ft 431 kts 230°
2026-05-03 23:52 38.44573 -90.95552 37869 ft 431 kts 230°
2026-05-03 23:53 38.40069 -91.00612 37872 ft 431 kts 230°
2026-05-03 23:53 38.35585 -91.05639 37919 ft 432 kts 230°
2026-05-03 23:54 38.31071 -91.10692 37922 ft 431 kts 230°
2026-05-03 23:54 38.26558 -91.15736 37908 ft 432 kts 230°
2026-05-03 23:55 38.22038 -91.20778 37921 ft 431 kts 230°
2026-05-03 23:55 38.17522 -91.25807 37896 ft 431 kts 230°
2026-05-03 23:56 38.13032 -91.30799 37917 ft 431 kts 230°
2026-05-03 23:56 38.08509 -91.35820 37917 ft 431 kts 230°
2026-05-03 23:57 38.03986 -91.40832 37914 ft 431 kts 230°
2026-05-03 23:57 37.99488 -91.45807 37911 ft 431 kts 230°
2026-05-03 23:58 37.94965 -91.50801 37913 ft 431 kts 230°
2026-05-03 23:58 37.90444 -91.55784 37910 ft 431 kts 230°
2026-05-03 23:59 37.85912 -91.60772 37913 ft 430 kts 230°
2026-05-03 23:59 37.81387 -91.65743 37915 ft 431 kts 230°
2026-05-04 00:00 37.76890 -91.70675 37925 ft 430 kts 230°
2026-05-04 00:00 37.72366 -91.75630 37928 ft 431 kts 230°
2026-05-04 00:01 37.67830 -91.80587 37912 ft 430 kts 230°
2026-05-04 00:01 37.63295 -91.85537 37917 ft 431 kts 230°
2026-05-04 00:02 37.59523 -91.89648 37922 ft 431 kts 230°
2026-05-04 00:02 37.54992 -91.94580 37931 ft 430 kts 230°
2026-05-04 00:03 37.49736 -92.00320 37928 ft 429 kts 231°
2026-05-04 00:03 37.46022 -92.04476 37913 ft 429 kts 230°
2026-05-04 00:04 37.40835 -92.10257 37938 ft 429 kts 230°
2026-05-04 00:04 37.37118 -92.14393 37930 ft 428 kts 230°
2026-05-04 00:05 37.32645 -92.19360 37928 ft 428 kts 230°
2026-05-04 00:05 37.28181 -92.24311 37941 ft 428 kts 230°
2026-05-04 00:06 37.23709 -92.29262 37931 ft 428 kts 230°
2026-05-04 00:06 37.19272 -92.34165 37930 ft 427 kts 230°
2026-05-04 00:07 37.14806 -92.39094 37948 ft 427 kts 230°
2026-05-04 00:07 37.10340 -92.44014 37954 ft 427 kts 230°
2026-05-04 00:08 37.05875 -92.48925 37960 ft 427 kts 230°
2026-05-04 00:08 37.01403 -92.53836 37958 ft 427 kts 230°
2026-05-04 00:09 36.96960 -92.58706 37961 ft 427 kts 230°
2026-05-04 00:09 36.92489 -92.63601 37957 ft 427 kts 230°
2026-05-04 00:10 36.88010 -92.68495 37939 ft 427 kts 230°
2026-05-04 00:10 36.83531 -92.73381 37957 ft 426 kts 229°
2026-05-04 00:11 36.79068 -92.78243 37953 ft 426 kts 229°
2026-05-04 00:11 36.74594 -92.83109 37953 ft 426 kts 229°
2026-05-04 00:12 36.70145 -92.87938 37939 ft 426 kts 229°
2026-05-04 00:12 36.65670 -92.92790 37961 ft 426 kts 229°
2026-05-04 00:13 36.61188 -92.97640 37963 ft 426 kts 229°
2026-05-04 00:13 36.56706 -93.02483 37963 ft 426 kts 229°
2026-05-04 00:14 36.52254 -93.07286 37990 ft 426 kts 229°
2026-05-04 00:14 36.47777 -93.12108 38002 ft 425 kts 229°
2026-05-04 00:15 36.43301 -93.16921 37987 ft 425 kts 229°
2026-05-04 00:15 36.38820 -93.21733 38007 ft 425 kts 229°
2026-05-04 00:16 36.34344 -93.26531 38005 ft 425 kts 229°
2026-05-04 00:16 36.29873 -93.31316 38001 ft 425 kts 229°
2026-05-04 00:17 36.25395 -93.36102 37994 ft 425 kts 229°
2026-05-04 00:17 36.20940 -93.40855 38002 ft 425 kts 229°
2026-05-04 00:18 36.16449 -93.45639 38013 ft 426 kts 229°
2026-05-04 00:18 36.11947 -93.50428 37986 ft 426 kts 229°
2026-05-04 00:19 36.07449 -93.55204 37988 ft 426 kts 229°
2026-05-04 00:19 36.02971 -93.59952 37988 ft 426 kts 229°
2026-05-04 00:20 35.98462 -93.64725 37994 ft 426 kts 229°
2026-05-04 00:20 35.93955 -93.69489 37994 ft 426 kts 229°
2026-05-04 00:21 35.89447 -93.74247 37987 ft 427 kts 229°
2026-05-04 00:21 35.84924 -93.79013 37993 ft 427 kts 229°
2026-05-04 00:22 35.80416 -93.83756 37984 ft 426 kts 229°
2026-05-04 00:22 35.75908 -93.88490 37988 ft 425 kts 229°
2026-05-04 00:23 35.71397 -93.93221 37997 ft 426 kts 229°
2026-05-04 00:23 35.66909 -93.97922 37967 ft 426 kts 229°
2026-05-04 00:24 35.62382 -94.02655 37981 ft 427 kts 229°
2026-05-04 00:24 35.57853 -94.07383 37990 ft 427 kts 229°
2026-05-04 00:25 35.53322 -94.12109 37988 ft 427 kts 229°
2026-05-04 00:25 35.48788 -94.16830 37977 ft 427 kts 229°
2026-05-04 00:26 35.44275 -94.21523 37974 ft 427 kts 229°
2026-05-04 00:26 35.39737 -94.26231 37978 ft 428 kts 228°
2026-05-04 00:27 35.34766 -94.30446 38003 ft 436 kts 223°
2026-05-04 00:27 35.29710 -94.34555 37988 ft 436 kts 222°
2026-05-04 00:28 35.24638 -94.38659 37988 ft 436 kts 222°
2026-05-04 00:28 35.19594 -94.42735 37987 ft 436 kts 222°
2026-05-04 00:29 35.16155 -94.45509 37959 ft 436 kts 223°
2026-05-04 00:29 35.11531 -94.49236 38002 ft 437 kts 223°
2026-05-04 00:30 35.06455 -94.53320 38006 ft 437 kts 223°
2026-05-04 00:30 35.01381 -94.57397 37988 ft 437 kts 223°
2026-05-04 00:31 34.96306 -94.61469 38005 ft 436 kts 223°
2026-05-04 00:31 34.91257 -94.65513 38003 ft 436 kts 223°
2026-05-04 00:32 34.86183 -94.69572 38001 ft 436 kts 223°
2026-05-04 00:32 34.81104 -94.73628 37996 ft 436 kts 224°
2026-05-04 00:33 34.73481 -94.79705 38006 ft 437 kts 223°
2026-05-04 00:34 34.68609 -94.83951 38017 ft 429 kts 229°
2026-05-04 00:34 34.63942 -94.88487 38007 ft 429 kts 229°
2026-05-04 00:35 34.59293 -94.93030 38018 ft 429 kts 229°
2026-05-04 00:35 34.54636 -94.97577 37992 ft 429 kts 230°
2026-05-04 00:36 34.49988 -95.02108 38015 ft 428 kts 230°
2026-05-04 00:36 34.45373 -95.06601 38005 ft 427 kts 230°
2026-05-04 00:37 34.40737 -95.11109 38013 ft 427 kts 230°
2026-05-04 00:37 34.36086 -95.15624 37968 ft 427 kts 230°
2026-05-04 00:38 34.31448 -95.20121 38039 ft 428 kts 230°
2026-05-04 00:38 34.26836 -95.24648 38031 ft 426 kts 230°
2026-05-04 00:39 34.22257 -95.29148 38020 ft 426 kts 230°
2026-05-04 00:39 34.17656 -95.33661 37567 ft 424 kts 230°
2026-05-04 00:39 34.15360 -95.35912 36808 ft 425 kts 230°
2026-05-04 00:40 34.13064 -95.38159 36151 ft 424 kts 230°
2026-05-04 00:40 34.10775 -95.40398 35479 ft 424 kts 229°
2026-05-04 00:40 34.08485 -95.42638 34743 ft 425 kts 229°
2026-05-04 00:40 34.06183 -95.44888 34032 ft 427 kts 229°
2026-05-04 00:41 34.03873 -95.47143 33207 ft 428 kts 229°
2026-05-04 00:41 34.01587 -95.49372 32556 ft 427 kts 228°
2026-05-04 00:41 33.99284 -95.51605 32029 ft 423 kts 227°
2026-05-04 00:41 33.96992 -95.53801 31485 ft 419 kts 227°
2026-05-04 00:42 33.94720 -95.55977 30968 ft 416 kts 227°
2026-05-04 00:42 33.92492 -95.58113 30453 ft 413 kts 226°
2026-05-04 00:42 33.90250 -95.60264 29877 ft 410 kts 226°
2026-05-04 00:42 33.88019 -95.62411 29123 ft 410 kts 226°
2026-05-04 00:43 33.85785 -95.64559 28507 ft 412 kts 226°
2026-05-04 00:43 33.83554 -95.66703 27884 ft 410 kts 225°
2026-05-04 00:43 33.81331 -95.68838 27218 ft 409 kts 225°
2026-05-04 00:43 33.79104 -95.70974 26588 ft 408 kts 225°
2026-05-04 00:44 33.76875 -95.73111 25947 ft 408 kts 225°
2026-05-04 00:44 33.74655 -95.75238 25306 ft 409 kts 225°
2026-05-04 00:44 33.72430 -95.77368 24668 ft 409 kts 224°
2026-05-04 00:44 33.70198 -95.79503 24017 ft 410 kts 224°
2026-05-04 00:45 33.67964 -95.81639 23308 ft 412 kts 223°
2026-05-04 00:45 33.65720 -95.83783 22589 ft 412 kts 223°
2026-05-04 00:45 33.63505 -95.85899 21935 ft 410 kts 223°
2026-05-04 00:45 33.61271 -95.88030 21289 ft 409 kts 222°
2026-05-04 00:46 33.59048 -95.90150 20646 ft 408 kts 222°
2026-05-04 00:46 33.56839 -95.92254 19992 ft 401 kts 222°
2026-05-04 00:46 33.54689 -95.94302 19385 ft 388 kts 221°
2026-05-04 00:46 33.52603 -95.96288 18780 ft 377 kts 221°
2026-05-04 00:47 33.50572 -95.98219 18167 ft 368 kts 221°
2026-05-04 00:47 33.48590 -96.00104 17509 ft 360 kts 221°
2026-05-04 00:47 33.46637 -96.01962 16875 ft 359 kts 221°
2026-05-04 00:47 33.44664 -96.03840 16230 ft 363 kts 220°
2026-05-04 00:48 33.42708 -96.05702 15701 ft 364 kts 220°
2026-05-04 00:48 33.40731 -96.07582 15153 ft 364 kts 220°
2026-05-04 00:48 33.38739 -96.09472 14580 ft 365 kts 219°
2026-05-04 00:48 33.36754 -96.11362 14021 ft 365 kts 219°
2026-05-04 00:49 33.34773 -96.13241 13392 ft 361 kts 219°
2026-05-04 00:49 33.32990 -96.15259 12714 ft 348 kts 234°
2026-05-04 00:49 33.31907 -96.17782 12136 ft 335 kts 247°
2026-05-04 00:49 33.31007 -96.20292 11660 ft 322 kts 246°
2026-05-04 00:50 33.30133 -96.22716 11177 ft 312 kts 246°
2026-05-04 00:50 33.29291 -96.25071 10691 ft 304 kts 246°
2026-05-04 00:50 33.28471 -96.27366 10204 ft 297 kts 246°
2026-05-04 00:50 33.27669 -96.29614 9708 ft 290 kts 246°
2026-05-04 00:51 33.26886 -96.31810 9216 ft 283 kts 246°
2026-05-04 00:51 33.26036 -96.33841 8920 ft 269 kts 234°
2026-05-04 00:51 33.24912 -96.35576 8740 ft 262 kts 231°
2026-05-04 00:51 33.23791 -96.37292 8604 ft 262 kts 231°
2026-05-04 00:52 33.22669 -96.39013 8451 ft 263 kts 231°
2026-05-04 00:52 33.21549 -96.40732 8290 ft 262 kts 231°
2026-05-04 00:52 33.20797 -96.41888 8178 ft 260 kts 231°
2026-05-04 00:52 33.19704 -96.43569 8022 ft 259 kts 231°
2026-05-04 00:53 33.18597 -96.45269 7863 ft 259 kts 231°
2026-05-04 00:53 33.17518 -96.46985 7690 ft 258 kts 234°
2026-05-04 00:53 33.16167 -96.49305 7464 ft 255 kts 233°
2026-05-04 00:53 33.15482 -96.50476 7367 ft 254 kts 234°
2026-05-04 00:54 33.14467 -96.52205 7210 ft 254 kts 233°
2026-05-04 00:54 33.13467 -96.53904 7056 ft 253 kts 233°
2026-05-04 00:54 33.12444 -96.55640 6894 ft 252 kts 233°
2026-05-04 00:54 33.11450 -96.57327 6760 ft 250 kts 233°
2026-05-04 00:55 33.10468 -96.58991 6674 ft 240 kts 233°
2026-05-04 00:55 33.09524 -96.60590 6607 ft 233 kts 233°
2026-05-04 00:55 33.08567 -96.62211 6550 ft 244 kts 233°
2026-05-04 00:55 33.07573 -96.63892 6486 ft 249 kts 233°
2026-05-04 00:56 33.06589 -96.65601 6405 ft 251 kts 238°
2026-05-04 00:56 33.06031 -96.67552 6306 ft 248 kts 256°
2026-05-04 00:56 33.05679 -96.69573 5893 ft 246 kts 251°
2026-05-04 00:56 33.05133 -96.71475 5515 ft 240 kts 247°
2026-05-04 00:57 33.04594 -96.73300 5170 ft 235 kts 248°
2026-05-04 00:57 33.04066 -96.75128 4807 ft 230 kts 248°
2026-05-04 00:57 33.03557 -96.76917 4441 ft 226 kts 248°
2026-05-04 00:57 33.03061 -96.78676 4130 ft 220 kts 248°
2026-05-04 00:58 33.02585 -96.80374 3909 ft 209 kts 247°
2026-05-04 00:58 33.02147 -96.81950 3728 ft 198 kts 248°
2026-05-04 00:58 33.01732 -96.83442 3545 ft 185 kts 248°
2026-05-04 00:58 33.01344 -96.84841 3395 ft 172 kts 246°
2026-05-04 00:59 33.00969 -96.86176 3275 ft 169 kts 245°
2026-05-04 00:59 33.00605 -96.87491 3162 ft 170 kts 245°
2026-05-04 00:59 33.00233 -96.88830 3076 ft 170 kts 245°
2026-05-04 00:59 32.99858 -96.90159 3012 ft 169 kts 245°
2026-05-04 01:00 32.99492 -96.91481 2949 ft 167 kts 245°
2026-05-04 01:00 32.99127 -96.92797 2911 ft 167 kts 245°
2026-05-04 01:00 32.98761 -96.94119 2893 ft 169 kts 246°
2026-05-04 01:00 32.98392 -96.95449 2884 ft 169 kts 246°
2026-05-04 01:01 32.98019 -96.96777 2863 ft 168 kts 244°
2026-05-04 01:01 32.97350 -96.97813 2830 ft 152 kts 207°
2026-05-04 01:01 32.96366 -96.97999 2830 ft 144 kts 168°
2026-05-04 01:01 32.95455 -96.97535 2829 ft 141 kts 158°
2026-05-04 01:02 32.94601 -96.96954 2766 ft 141 kts 152°
2026-05-04 01:02 32.93801 -96.96268 2654 ft 142 kts 147°
2026-05-04 01:02 32.93040 -96.95506 2531 ft 142 kts 143°
2026-05-04 01:02 32.92325 -96.94719 2374 ft 142 kts 141°
2026-05-04 01:03 32.91598 -96.93889 2206 ft 146 kts 141°
2026-05-04 01:03 32.90877 -96.93048 2057 ft 147 kts 140°
2026-05-04 01:03 32.90178 -96.92233 1898 ft 145 kts 140°
2026-05-04 01:03 32.89460 -96.91396 1704 ft 147 kts 140°
2026-05-04 01:04 32.88716 -96.90472 1584 ft 160 kts 138°
2026-05-04 01:04 32.87953 -96.89517 1561 ft 165 kts 139°
2026-05-04 01:04 32.87079 -96.88535 1146 ft 174 kts 141°
2026-05-04 01:04 32.86204 -96.87577 829 ft 169 kts 137°
2026-05-04 01:05 32.85389 -96.86625 596 ft 162 kts 138°
2026-05-04 01:05 32.84618 -96.85746 491 ft 146 kts 138°
2026-05-04 01:05 32.84034 -96.85078 487 ft 81 kts 136°
2026-05-04 01:05 32.83774 -96.84777 487 ft 27 kts 135°
2026-05-04 01:06 32.83756 -96.84673 485 ft 13 kts 51°
2026-05-04 01:06 32.83786 -96.84658 481 ft 3 kts
2026-05-04 01:06 32.83820 -96.84658 483 ft 7 kts 347°
2026-05-04 01:06 32.83873 -96.84710 480 ft 14 kts 312°
2026-05-04 01:07 32.83964 -96.84809 483 ft 22 kts 316°
2026-05-04 01:07 32.84092 -96.84957 486 ft 28 kts 315°
2026-05-04 01:07 32.84238 -96.85129 485 ft 31 kts 315°
2026-05-04 01:07 32.84378 -96.85292 485 ft 25 kts 316°
2026-05-04 01:08 32.84539 -96.85344 483 ft 26 kts
2026-05-04 01:08 32.84709 -96.85321 483 ft 17 kts 18°
2026-05-04 01:08 32.84746 -96.85232 482 ft 13 kts 91°
2026-05-04 01:08 32.84745 -96.85096 486 ft 21 kts 91°
2026-05-04 01:09 32.84733 -96.84887 478 ft 27 kts 101°
2026-05-04 01:09 32.84662 -96.84696 480 ft 25 kts 134°
2026-05-04 01:09 32.84569 -96.84638 484 ft 11 kts 203°
2026-05-04 01:09 32.84511 -96.84709 483 ft 13 kts 243°
2026-05-04 01:10 32.84513 -96.84814 486 ft 8 kts 300°
2026-05-04 01:10 32.84539 -96.84831 483 ft 4 kts 350°
2026-05-04 01:10 32.84558 -96.84831 481 ft 3 kts
2026-05-04 01:10 32.84565 -96.84831 483 ft 0 kts